Home   Weather   Stellenbosch   Past weeks

Flag for South Africa Past Weather in Stellenbosch, South Africa — Yesterday and Last 2 Weeks

Now
79 °F

Clear.


Feels Like: 79 °F
Forecast: 57 / 73 °F
Wind: 10 mph from Northeast

Location: Cape Town International Airport

Current Time: Apr 30, 2017 at 1:17:17 am

Latest Report: Apr 30, 2017 at 12:00 am


Visibility: 10 mi

Pressure: 30.01 "Hg

Humidity: 32%

Dew Point: 46 °F

Location of StellenboschLocation

Past Weather in Stellenbosch — Graph

°F

Stellenbosch Temperature Yesterday

Maximum temperature yesterday: 97 °F (at 1:00 pm)
Minimum temperature yesterday: 59 °F (at 2:00 am)
Average temperature yesterday: 79 °F

High & Low Weather Summary for the Past Weeks

 TemperatureHumidityPressure
High97 °F (Apr 29, 1:00 pm)94% (Apr 18, 7:00 am)30.39 "Hg (Apr 18, 7:00 am)
Low48 °F (Apr 25, 6:00 am)18% (Apr 25, 1:00 pm)29.86 "Hg (Apr 26, 2:00 am)
Average67 °F63%30.03 "Hg
* Reported Apr 15 12:00 am — Apr 30 12:00 am, Stellenbosch, Weather by CustomWeather, © 2017

Note: Actual official high and low records may vary slightly from our data, if they occured in-between our weather recording intervals... More about our weather records

Advertising

Stellenbosch Weather History for the Previous 24 Hours

Scroll right to see more
 ConditionsComfort  
Time TempWeatherWind HumidityBarometerVisibility
12:00 am
Sun, Apr 30
79 °FClear.10 mph32%30.01 "Hg10 mi
11:00 pm
Sat, Apr 29
77 °FClear.9 mph34%30.01 "Hg10 mi
10:00 pm72 °FClear.8 mph50%30.01 "Hg10 mi
9:59 pm75 °FClear.9 mph39%30.01 "Hg10 mi
9:00 pm70 °FPassing clouds.5 mph53%30.01 "HgN/A
8:00 pm77 °FPassing clouds.3 mph42%30.01 "HgN/A
7:00 pm77 °FPassing clouds.6 mph44%30.01 "HgN/A
6:00 pm90 °FSunny.6 mph26%29.98 "Hg10 mi
5:00 pm95 °FSunny.12 mph20%30.01 "Hg10 mi
4:00 pm95 °FSunny.16 mph22%30.01 "Hg10 mi
3:00 pm97 °FSunny.17 mph22%30.01 "Hg10 mi
2:00 pm97 °FSunny.15 mph20%30.04 "Hg10 mi
1:00 pm97 °FSunny.20 mph20%30.07 "Hg10 mi
12:00 pm95 °FSunny.18 mph23%30.07 "Hg10 mi
11:00 am93 °FSunny.10 mph28%30.09 "Hg10 mi
10:30 am91 °FSunny.9 mph28%30.09 "Hg10 mi
10:00 am88 °FSunny.9 mph31%30.09 "Hg10 mi
9:30 am86 °FSunny.9 mph33%30.09 "Hg10 mi
9:00 am82 °FSunny.13 mph35%30.09 "Hg10 mi
8:00 am77 °FSunny.10 mph39%30.07 "Hg10 mi
7:00 am77 °FClear.12 mph42%30.07 "Hg10 mi
6:00 am79 °FClear.13 mph39%30.04 "Hg10 mi
5:34 am75 °FClear.10 mph47%30.04 "Hg10 mi
5:00 am59 °FClear.6 mph82%30.04 "Hg10 mi
4:00 am59 °FClear.6 mph82%30.04 "Hg10 mi
3:00 am59 °FClear.2 mph82%30.04 "Hg10 mi
2:00 am59 °FClear.2 mph82%30.04 "Hg10 mi
1:00 am61 °FClear.2 mph83%30.04 "Hg10 mi
Weather by CustomWeather, © 2017

See weather overviewHow to use our weather pages